This is the latest recevied weather packets stored in our database for station/object KD5BIG-13. If no packets are shown the sender has not sent any weather packets the latest 10 day(s).
| Time | Temp. | Humidity | Pressure | Rain* | Wind** | Luminosity | Snow |
|---|---|---|---|---|---|---|---|
| 1777672330 | 11.11° C | 97% | 1015.6 hPa | 9.65 mm | - | 20 W/m² | - |
| 1777672025 | 11.11° C | 97% | 1015.5 hPa | 7.11 mm | - | 19 W/m² | - |
| 1777671721 | 11.11° C | 97% | 1015.8 hPa | 7.11 mm | - | 19 W/m² | - |
| 1777671417 | 11.11° C | 97% | 1015.5 hPa | 7.87 mm | - | 18 W/m² | - |
| 1777671113 | 11.11° C | 96% | 1015.6 hPa | 7.87 mm | - | 20 W/m² | - |
| 1777670810 | 11.11° C | 96% | 1015.8 hPa | 8.89 mm | - | 21 W/m² | - |
| 1777670507 | 11.11° C | 96% | 1015.5 hPa | 8.38 mm | - | 23 W/m² | - |
| 1777670204 | 11.11° C | 96% | 1015.7 hPa | 7.87 mm | - | 22 W/m² | - |
| 1777669901 | 11.67° C | 96% | 1016 hPa | 8.38 mm | - | 23 W/m² | - |
| 1777669598 | 11.67° C | 96% | 1016.1 hPa | 9.65 mm | - | 20 W/m² | - |
| 1777669295 | 11.67° C | 96% | 1016.3 hPa | 10.16 mm | - | 23 W/m² | - |
| 1777668991 | 11.67° C | 96% | 1016.3 hPa | 7.87 mm | - | 23 W/m² | - |
| 1777668689 | 12.22° C | 96% | 1016.7 hPa | 7.87 mm | - | 24 W/m² | - |
| 1777668385 | 12.22° C | 96% | 1016.7 hPa | 8.89 mm | - | 25 W/m² | - |
| 1777668081 | 12.22° C | 97% | 1017.1 hPa | 7.87 mm | - | 23 W/m² | - |
| 1777667778 | 12.22° C | 97% | 1017.4 hPa | 6.1 mm | - | 35 W/m² | - |
| 1777667475 | 12.22° C | 97% | 1017.8 hPa | 5.33 mm | - | 37 W/m² | - |
| 1777667173 | 12.78° C | 96% | 1017.8 hPa | 5.33 mm | - | 15 W/m² | - |
| 1777666869 | 12.78° C | 96% | 1017.7 hPa | 5.33 mm | - | 16 W/m² | - |
| 1777666566 | 12.78° C | 96% | 1017.7 hPa | 6.1 mm | - | 15 W/m² | - |
| 1777666262 | 12.78° C | 96% | 1017.2 hPa | 4.32 mm | - | 20 W/m² | - |
| 1777665959 | 12.78° C | 96% | 1017.4 hPa | 3.05 mm | - | 40 W/m² | - |
| 1777665657 | 12.78° C | 96% | 1017.8 hPa | 2.29 mm | - | 29 W/m² | - |
| 1777665354 | 12.78° C | 96% | 1017.9 hPa | 1.78 mm | - | 25 W/m² | - |
| 1777665049 | 12.78° C | 95% | 1017.7 hPa | 1.78 mm | - | 24 W/m² | - |
* Rain latest hour (hover to see other rain measurements)
** Current wind speed in m/s (hover to see current wind gust speed)